Time,B instrument,Bx,By,Bz,sigma B,Ion instrument,Status,Tp_par,Tp_perp,carrot,r_sun,clat,clong,earth_he_angle,n_p,vp_x,vp_y,vp_z,vth_p_par,vth_p_perp
1980-06-24 00:00:15,1,-5.45455,-0.309091,-12.1545,1.10304,1,1,45766.4,38192.8,1697,0.58105022,6.6488543,252.29605,96.49527,23.9899,337.045,-2.65039,-16.1291,27.4872,25.1101
1980-06-24 00:00:56,1,-5.64167,-0.1,-12.125,0.816071,1,1,49258.7,32730.8,1696,0.58103049,6.6331911,252.34877,96.555801,23.6708,334.607,-2.02197,-15.4885,28.5167,23.2454
1980-06-24 00:01:36,1,-5.50909,-0.581818,-11.9182,0.645391,1,1,51861.6,37276.4,1696,0.58103895,6.6331215,252.34558,96.556519,21.7034,336.427,-1.95209,-13.8012,29.2604,24.807
1980-06-24 00:02:17,1,-5.63333,-0.483333,-11.9667,1.10567,1,1,51595.2,41872.2,1696,0.58104736,6.6330519,252.3385,96.557251,27.324,329.933,-1.34599,-10.7914,29.1852,26.2918
1980-06-24 00:02:57,1,-4.4,-1.06667,-12.1917,1.25949,1,1,40708.9,42256.3,1696,0.58104736,6.6330519,252.33459,96.557251,25.5373,341.28,-4.74378,-15.8072,25.924,26.4121
1980-06-24 00:03:38,1,-3.3,-0.558333,-12.7333,0.60936,1,1,39565.1,34860.1,1696,0.58105582,6.6329823,252.32751,96.557983,25.4816,342.761,-2.87726,-16.369,25.5572,23.9896
1980-06-24 00:04:18,1,-4.41818,0.209091,-12.4,1.08315,1,1,49598.9,41386.9,1696,0.58106428,6.6329126,252.32433,96.558701,25.2821,340.188,0.493951,-15.8444,28.615,26.139
1980-06-24 00:04:59,1,-2.34615,-0.538462,-12.6615,1.21888,1,1,48744.3,36612.1,1696,0.58106428,6.6329126,252.31651,96.558701,26.7164,346.475,-1.71596,-17.4061,28.3674,24.585
1980-06-24 00:05:39,1,-3.99167,-2.01667,-12.1667,1.20113,1,1,45925.7,38134.3,1696,0.58107275,6.632843,252.30943,96.559433,25.7439,341.794,-15.4024,-15.2723,27.5351,25.0909
1980-06-24 00:06:20,1,-6.24167,0.883333,-11.4917,0.731152,1,1,40144.8,39316.8,1696,0.58108121,6.6327734,252.30626,96.560165,25.5964,335.818,2.5475,-13.8829,25.7438,25.4769
1980-06-24 00:07:00,1,-6.24545,-0.181818,-11.5455,0.657192,1,1,44754.3,42692.2,1696,0.58108968,6.6327028,252.29918,96.560898,27.405,334.02,-0.612433,-11.8702,27.1816,26.548
1980-06-24 00:07:41,1,-7.24167,-0.833333,-11.1,0.732338,1,1,49889.8,38916.8,1696,0.58108968,6.6327028,252.29527,96.560898,26.2083,329.35,-1.51227,-10.3672,28.6988,25.347
1980-06-24 00:08:21,1,-6.92727,-2.90909,-10.8,0.659952,1,1,42966.1,35819.2,1696,0.58109814,6.6326332,252.28818,96.561615,24.0759,328.807,-6.12893,-12.0192,26.633,24.3173
1980-06-24 00:10:25,-1,nan,nan,nan,nan,1,3,nan,nan,1696,0.58111507,6.632494,252.27011,96.56308,nan,352.197,-3.29226,-17.802,nan,nan
1980-06-24 00:21:13,-1,nan,nan,nan,nan,1,3,nan,nan,1696,0.58120811,6.6317263,252.18047,96.571091,nan,323.168,-8.05556,-0.082654,nan,nan
1980-06-24 00:32:01,-1,nan,nan,nan,nan,1,3,nan,nan,1696,0.58130115,6.6309586,252.0869,96.579086,nan,316.366,3.46431,7.38508,nan,nan
1980-06-24 00:42:49,-1,nan,nan,nan,nan,1,3,nan,nan,1696,0.58138573,6.6302614,251.99654,96.58638,nan,321.107,0.413432,3.27125,nan,nan
1980-06-24 00:53:37,-1,nan,nan,nan,nan,1,3,nan,nan,1696,0.58147877,6.6294937,251.90298,96.594391,nan,319.868,5.4533,2.99336,nan,nan
1980-06-24 01:04:25,-1,nan,nan,nan,nan,1,3,nan,nan,1696,0.58157182,6.6287251,251.81332,96.602386,nan,322.274,7.35196,3.60627,nan,nan
1980-06-24 01:15:13,-1,nan,nan,nan,nan,1,3,nan,nan,1696,0.5816648,6.6279554,251.72365,96.610367,nan,329.207,17.6675,1.81565,nan,nan
1980-06-24 01:26:01,-1,nan,nan,nan,nan,1,3,nan,nan,1696,0.58175778,6.6271858,251.63007,96.618347,nan,324.06,11.2078,6.2763,nan,nan
1980-06-24 01:36:49,-1,nan,nan,nan,nan,1,3,nan,nan,1696,0.58184236,6.6264868,251.53966,96.625595,nan,321.288,3.9019,4.52871,nan,nan
1980-06-24 01:47:37,-1,nan,nan,nan,nan,1,3,nan,nan,1696,0.58193535,6.6257172,251.44608,96.633575,nan,322.051,11.4237,0.219022,nan,nan
1980-06-24 01:58:25,-1,nan,nan,nan,nan,1,3,nan,nan,1696,0.58202833,6.6249475,251.3564,96.641556,nan,317.603,6.08408,8.82429,nan,nan
1980-06-24 02:09:13,-1,nan,nan,nan,nan,1,3,nan,nan,1696,0.58212125,6.624177,251.26671,96.649521,nan,319.519,10.5676,3.2863,nan,nan
1980-06-24 02:20:01,-1,nan,nan,nan,nan,1,3,nan,nan,1696,0.58221424,6.6234064,251.17311,96.657486,nan,315.592,10.301,8.57533,nan,nan
1980-06-24 02:30:49,-1,nan,nan,nan,nan,1,3,nan,nan,1696,0.5822987,6.6227064,251.08269,96.664719,nan,314.629,12.7716,5.51554,nan,nan
1980-06-24 02:41:37,-1,nan,nan,nan,nan,1,3,nan,nan,1696,0.58239162,6.6219349,250.98907,96.672668,nan,317.207,11.8248,4.02192,nan,nan
1980-06-24 02:52:25,-1,nan,nan,nan,nan,1,3,nan,nan,1696,0.5824846,6.6211643,250.89937,96.680618,nan,315.254,9.97708,2.88827,nan,nan
1980-06-24 03:03:13,-1,nan,nan,nan,nan,1,3,nan,nan,1696,0.58257753,6.6203938,250.80576,96.688568,nan,314.485,10.7847,1.87878,nan,nan
1980-06-24 03:14:01,-1,nan,nan,nan,nan,1,3,nan,nan,1696,0.58267039,6.6196213,250.71603,96.696503,nan,315.202,8.43738,-0.00775439,nan,nan
1980-06-24 03:15:13,-1,nan,nan,nan,nan,1,3,nan,nan,1696,0.58267885,6.6195517,250.70503,96.69722,nan,341.103,-42.3844,-0.0060774,nan,nan
1980-06-24 03:24:49,-1,nan,nan,nan,nan,1,3,nan,nan,1696,0.58275485,6.6189194,250.6256,96.70372,nan,314.177,8.55932,1.02399,nan,nan
1980-06-24 03:35:37,-1,nan,nan,nan,nan,1,3,nan,nan,1696,0.58284771,6.6181479,250.53195,96.711639,nan,313.166,10.3669,-0.625947,nan,nan
1980-06-24 03:46:25,-1,nan,nan,nan,nan,1,3,nan,nan,1696,0.58294058,6.6173754,250.44223,96.719574,nan,314.657,10.9578,3.0258,nan,nan
1980-06-24 03:57:13,-1,nan,nan,nan,nan,1,3,nan,nan,1696,0.5830335,6.6166029,250.3486,96.727509,nan,315.911,11.3319,8.90179,nan,nan
1980-06-24 04:04:21,-1,nan,nan,nan,nan,1,3,nan,nan,1697,0.58311361,6.6313915,250.23056,96.671967,nan,315.91,11.3283,8.90179,nan,nan
1980-06-24 04:08:01,1,-11.9,2.3,0.7,0.0,1,1,35773.1,36108.6,1696,0.58312631,6.6158304,250.25885,96.735413,19.4808,314.883,11.7801,5.73648,24.3017,24.4154
1980-06-24 04:15:09,1,-11.5,3.35,1.9,0.708872,1,1,36675.4,35801.7,1697,0.58320457,6.6306167,250.13675,96.679718,19.514,314.898,11.7324,5.75313,24.6062,24.3114
1980-06-24 04:18:45,1,-11.1,2.7,2.7,0.0,1,1,36943.6,32435.7,1697,0.58323514,6.6303563,250.10812,96.682343,20.2115,316.499,16.3475,14.0891,24.6961,23.1403
1980-06-24 04:29:37,1,-12.7,1.1,0.8,0.0,1,1,35079.2,37225.6,1696,0.58330357,6.614356,250.07472,96.750504,20.3771,314.361,11.771,11.6469,24.0648,24.7901
1980-06-24 04:55:53,1,-13.5091,0.818182,-1.67273,0.425043,1,1,43667.4,39721.7,1697,0.58354843,6.6276903,249.79099,96.708954,25.6315,316.528,3.43047,3.71909,26.8495,25.6078
1980-06-24 04:56:55,1,-13.0727,-1.94545,-2.50909,1.27985,1,1,43453.6,41684.4,1696,0.58353138,6.6124601,249.84412,96.769897,26.3755,326.517,-10.7176,24.4047,26.7837,26.2328
1980-06-24 04:56:56,1,-13.11,-1.93,-2.44,1.31583,1,1,34768.2,43021.1,1696,0.58353138,6.6124601,249.84412,96.769897,24.0397,316.205,11.3559,-1.37608,23.9579,26.6501
1980-06-24 04:57:54,1,-9.94545,-6.54545,1.6,1.81745,1,1,50709.0,41486.1,1696,0.58353984,6.6123896,249.83702,96.770615,25.7564,330.599,-19.6644,17.6472,28.9335,26.1703
1980-06-24 04:58:35,1,-5.3,-9.00909,4.19091,1.42185,1,1,52031.0,42830.5,1696,0.58354825,6.6123199,249.82993,96.771332,26.1293,341.574,-24.9263,18.7647,29.3082,26.591
1980-06-24 04:59:15,1,-6.575,-9.20833,2.775,1.40754,1,1,49532.0,35711.2,1696,0.58355671,6.6122494,249.82283,96.772049,23.06,344.43,-29.8823,14.477,28.5957,24.2806
1980-06-24 04:59:56,1,-9.325,-7.875,1.20833,0.933371,1,1,48017.2,34230.4,1696,0.58355671,6.6122494,249.81892,96.772049,23.7338,333.424,-24.0727,9.11807,28.1551,23.7719
1980-06-24 05:00:36,1,-12.1,-4.05,-2.425,2.57864,1,1,34522.1,46619.9,1696,0.58356518,6.6121798,249.81184,96.772781,22.2586,326.872,-17.612,2.14882,23.873,27.7424
1980-06-24 05:02:37,-1,nan,nan,nan,nan,1,4,nan,nan,1696,0.58358204,6.6120386,249.79373,96.7742,nan,nan,nan,nan,nan,nan
1980-06-24 05:03:17,1,-10.5167,-6.63333,2.28333,0.385141,1,1,45017.2,37663.0,1696,0.58359045,6.611968,249.79054,96.774918,24.8589,330.909,-26.2269,14.8386,27.2613,24.9353
1980-06-24 05:03:59,1,-11.275,-5.875,1.43333,0.797479,1,1,43401.3,38783.6,1696,0.58359045,6.611968,249.78273,96.774918,25.8701,326.166,-19.9311,14.4973,26.7676,25.3036
1980-06-24 05:04:39,1,-11.4818,-5.52727,1.66364,0.609294,1,1,44679.7,39009.9,1696,0.58359891,6.6118975,249.77954,96.775635,24.5744,328.054,-21.4885,17.0996,27.159,25.3773
1980-06-24 05:05:20,1,-10.0,-6.86667,2.06667,1.26469,1,1,44094.1,32343.6,1696,0.58360732,6.6118269,249.77245,96.776352,23.3239,331.228,-25.0687,14.5121,26.9804,23.1075
1980-06-24 05:06:00,1,-12.2727,-4.9,0.790909,0.802887,1,1,44641.6,40799.5,1696,0.58361578,6.6117573,249.76535,96.777069,24.8466,323.309,-18.6491,9.25816,27.1474,25.9529
1980-06-24 05:06:41,1,-13.1,-3.75455,-0.927273,0.433704,1,1,40251.7,38245.7,1696,0.58361578,6.6117573,249.76144,96.777069,24.2551,322.662,-14.3005,8.14751,25.7781,25.1275
1980-06-24 05:07:21,1,-13.2273,-3.44545,-1.09091,0.455091,1,1,41306.2,41445.3,1696,0.58362418,6.6116867,249.75435,96.777786,24.9466,321.716,-13.1376,7.73437,26.1135,26.1575
1980-06-24 05:08:02,1,-12.6182,-5.0,-1.02727,0.554173,1,1,38041.2,38133.5,1696,0.58363265,6.6116161,249.75116,96.778503,24.1418,322.887,-18.0336,7.13939,25.0602,25.0906
1980-06-24 05:08:42,1,-12.2636,-5.51818,-1.93636,1.54882,1,1,42456.1,41370.1,1696,0.58363265,6.6116161,249.74335,96.778503,25.8371,323.098,-18.4787,7.9141,26.4745,26.1337
1980-06-24 05:09:23,1,-12.9455,-4.3,-1.35455,0.90023,1,1,39298.2,36503.1,1696,0.58364105,6.6115456,249.74016,96.779221,24.292,323.848,-18.4275,7.15089,25.4709,24.5484
1980-06-24 05:10:03,1,-12.7091,-4.9,-1.9,0.906998,1,1,37142.9,45156.6,1696,0.58364952,6.611475,249.73306,96.779938,25.057,323.419,-17.6307,6.21182,24.7626,27.3035
1980-06-24 05:10:44,1,-12.4364,-5.13636,-0.918182,0.554918,1,1,43554.1,39396.8,1696,0.58364952,6.611475,249.72525,96.779938,25.0587,322.734,-20.8,8.74904,26.8147,25.5028
1980-06-24 05:11:24,1,-11.8545,-5.59091,0.5,0.164141,1,1,49012.6,41592.3,1696,0.58365792,6.6114044,249.72206,96.780655,26.616,325.972,-23.3592,12.7664,28.4454,26.2038
1980-06-24 05:12:05,1,-12.0909,-5.33636,-0.7,0.530398,1,1,44558.0,43075.6,1696,0.58366638,6.6113348,249.71497,96.781372,27.1916,325.062,-23.9719,9.34055,27.1219,26.667
1980-06-24 05:12:45,1,-11.2636,-6.62727,-0.663636,0.916154,1,1,45562.7,43026.9,1696,0.58366638,6.6113348,249.71106,96.781372,26.1939,324.803,-22.7629,9.55384,27.426,26.6519
1980-06-24 05:13:26,1,-11.3818,-6.25455,-0.2,1.35189,1,1,49871.1,48630.2,1696,0.58367479,6.6112642,249.70396,96.782089,31.5187,329.098,-28.2529,9.38105,28.6934,28.3342
1980-06-24 05:14:06,1,-10.7385,-6.86923,1.14615,1.21436,1,1,55402.1,39086.5,1696,0.58368325,6.6111937,249.69687,96.782806,25.2948,329.326,-23.6722,15.1343,30.2427,25.4022
1980-06-24 05:14:47,1,-11.8417,-5.51667,-1.55833,2.80498,1,1,40159.5,41337.8,1696,0.58368325,6.6111937,249.69296,96.782806,24.4698,326.121,-17.025,4.04369,25.7485,26.1235
1980-06-24 05:15:27,1,-11.8636,-5.89091,-2.11818,0.952075,1,1,45044.1,40850.6,1696,0.58369166,6.6111231,249.68587,96.783524,24.537,329.379,-25.3378,9.47552,27.2695,25.9691
1980-06-24 05:16:08,1,-12.65,-3.56667,-3.84167,1.19742,1,1,41604.5,41675.1,1696,0.58370012,6.6110525,249.68266,96.784225,23.2302,323.963,-5.97527,-5.89931,26.2076,26.2299
1980-06-24 05:16:48,1,-12.8364,-3.34545,-3.52727,0.608616,1,1,46200.2,42023.1,1696,0.58370012,6.6110525,249.67485,96.784225,24.5261,322.248,-9.9009,-0.302408,27.6172,26.3392
1980-06-24 05:17:29,1,-12.9182,-2.42727,-4.36364,0.855126,1,1,43436.3,43261.3,1696,0.58370852,6.6109819,249.66776,96.784943,24.93,321.883,-5.99592,-7.45796,26.7784,26.7244
1980-06-24 05:18:09,1,-11.9091,-1.18182,-7.46364,0.841584,1,1,45562.9,40580.5,1696,0.58371699,6.6109123,249.66457,96.78566,26.218,325.427,-7.31112,-11.1989,27.4261,25.8831
1980-06-24 05:18:50,1,-11.9545,-0.5,-7.47273,0.572799,1,1,38820.4,40939.7,1696,0.58371699,6.6109123,249.65675,96.78566,25.4038,325.462,-6.58122,-10.3215,25.3156,25.9974
1980-06-24 05:19:30,1,-11.2727,1.04545,-8.57273,0.563343,1,1,40907.8,40716.6,1696,0.58372539,6.6108418,249.65356,96.786377,24.9503,327.356,-1.45635,-15.7196,25.9873,25.9265
1980-06-24 05:20:11,1,-11.0167,4.28333,-7.61667,2.20888,1,1,32755.5,44103.5,1696,0.58373386,6.6107712,249.64647,96.787094,20.7771,329.071,22.5094,-8.26737,23.2541,26.9833
1980-06-24 05:20:51,1,-13.3,-0.79,-0.72,1.76366,1,1,39574.3,41951.9,1696,0.58373386,6.6107712,249.64256,96.787094,24.5467,317.362,-5.01477,12.0226,25.5602,26.3168
1980-06-24 05:21:32,1,-10.7,-6.65,0.49,0.459783,1,1,50021.5,35567.5,1696,0.58374226,6.6107006,249.63547,96.787811,23.7439,329.088,-25.4352,15.1417,28.7367,24.2317
1980-06-24 05:22:12,1,-12.2273,-3.43636,-3.01818,2.26723,1,1,39429.8,43681.4,1696,0.58375072,6.61063,249.62837,96.788528,22.9588,323.542,-18.3149,5.6711,25.5135,26.8538
1980-06-24 05:22:53,1,-11.6455,-1.34545,-7.05455,0.731239,1,1,38977.7,39901.8,1696,0.58375072,6.61063,249.62447,96.788528,22.4527,323.538,-9.0138,-12.1212,25.3668,25.6658
1980-06-24 05:23:33,1,-8.44545,2.8,-9.02727,4.94836,1,1,30122.9,64451.8,1696,0.58375913,6.6105595,249.61737,96.789246,29.8434,330.695,-16.207,-12.0423,22.3001,32.6193
1980-06-24 05:24:14,1,-8.05455,3.97273,-10.3545,1.3796,1,1,46704.2,38408.0,1696,0.58376759,6.6104898,249.61418,96.789963,25.2842,339.671,11.8688,-23.2716,27.7675,25.1808
1980-06-24 05:24:54,1,-8.11667,2.825,-10.6083,1.99851,1,1,46607.9,43572.3,1696,0.58376759,6.6104889,249.60637,96.789963,24.5292,343.426,6.37237,-26.8884,27.7388,26.8203
1980-06-24 05:25:35,1,-8.8,-0.790909,-10.1909,0.987107,1,1,51311.4,38720.2,1696,0.583776,6.6104193,249.59927,96.79068,23.6069,336.407,-11.9566,-21.2175,29.1048,25.2829
1980-06-24 05:26:15,1,-9.85455,-1.01818,-9.15455,0.994115,1,1,44565.5,42654.6,1696,0.58378446,6.6103487,249.59608,96.791397,24.4269,329.708,-4.82045,-18.1005,27.1242,26.5363
1980-06-24 05:26:56,1,-11.3833,0.125,-8.0,0.915568,1,1,37428.4,42806.0,1696,0.58378446,6.6103487,249.58827,96.791397,22.8119,326.952,-4.74054,-18.1595,24.8575,26.5834
1980-06-24 05:27:36,1,-11.7182,-0.3,-7.4,0.671251,1,1,44741.6,43278.3,1696,0.58379292,6.6102781,249.58508,96.792114,25.1771,327.154,-7.75461,-11.986,27.1778,26.7296
1980-06-24 05:28:17,1,-12.0364,1.53636,-6.54545,1.49782,1,1,39740.6,42935.3,1696,0.58380133,6.6102076,249.57799,96.792831,24.4126,325.387,5.72238,-10.9436,25.6139,26.6235
1980-06-24 05:28:57,1,-12.5727,-0.181818,-5.2,1.00626,1,1,45231.8,42261.5,1696,0.58380133,6.6102076,249.57018,96.792831,26.8812,323.236,-3.06527,-3.80676,27.3262,26.4138
1980-06-24 05:29:38,1,-12.8091,-2.32727,-3.30909,0.954416,1,1,44421.4,40669.8,1696,0.58380979,6.610137,249.56699,96.793549,24.6773,323.415,-15.5562,4.74984,27.0803,25.9116
1980-06-24 05:30:18,1,-12.1545,-4.13636,-2.87273,1.06321,1,1,52775.1,43792.3,1696,0.5838182,6.6100674,249.55989,96.794266,26.554,324.272,-13.4203,2.09291,29.517,26.8879
1980-06-24 05:30:59,1,-12.4182,-4.45455,-2.60909,0.410402,1,1,40568.0,37546.9,1696,0.5838182,6.6100664,249.55598,96.794266,23.7239,325.427,-17.4774,5.05001,25.8791,24.8969
1980-06-24 05:31:39,1,-12.0727,-4.63636,-1.64545,1.59928,1,1,48006.3,40038.8,1696,0.58382666,6.6099968,249.54887,96.794968,25.0102,325.385,-17.8467,4.44993,28.1519,25.7098
1980-06-24 05:32:20,1,-11.9909,-5.06364,-0.0363636,0.589299,1,1,39918.3,40925.0,1696,0.58383507,6.6099262,249.54568,96.795685,22.4899,326.301,-16.5472,10.4618,25.6711,25.9928
1980-06-24 05:33:00,1,-11.7636,-5.39091,0.981818,1.21022,1,1,45545.0,47354.8,1696,0.58384353,6.6098557,249.53859,96.796402,25.7798,325.829,-17.1855,12.8459,27.4207,27.9602
1980-06-24 05:33:41,1,-9.8,-0.618182,-8.82727,3.33791,1,1,47751.3,43663.9,1696,0.58384353,6.6098557,249.53078,96.796402,22.7458,334.786,-0.110449,-24.1127,28.077,26.8484
1980-06-24 05:34:21,1,-10.4833,1.21667,-9.96667,0.32914,1,1,47321.7,40483.8,1696,0.58385193,6.6097851,249.52759,96.797119,25.2869,330.555,-0.749385,-20.2897,27.9504,25.8523
1980-06-24 05:35:02,1,-10.7364,1.79091,-9.20909,1.02972,1,1,40905.3,44357.1,1696,0.5838604,6.6097145,249.52049,96.797836,24.7109,327.976,2.08326,-20.5714,25.9865,27.0607
1980-06-24 05:35:42,1,-10.1364,-1.14545,-9.37273,2.4855,1,1,45418.1,42301.5,1696,0.5838604,6.6097145,249.51659,96.797836,25.4916,328.547,-1.69286,-13.3713,27.3825,26.4263
1980-06-24 05:36:23,1,-9.8,-0.341667,-10.4333,1.34895,1,1,41939.8,44187.3,1696,0.5838688,6.6096449,249.50949,96.798553,24.0319,335.28,-6.38503,-22.22,26.313,27.0089
1980-06-24 05:37:03,1,-9.47273,2.59091,-10.8,1.72919,1,1,38550.3,44628.3,1696,0.58387727,6.6095743,249.5024,96.799271,23.656,332.073,10.7229,-23.0179,25.2273,27.1433
1980-06-24 05:37:44,1,-8.82727,2.20909,-10.9636,0.646414,1,1,39677.3,46267.4,1696,0.58387727,6.6095743,249.49849,96.799271,23.868,336.638,8.07839,-25.147,25.5935,27.6373
1980-06-24 05:38:24,1,-5.55833,3.81667,-12.6917,1.329,1,1,43616.4,40064.4,1696,0.58388567,6.6095037,249.49139,96.799988,25.4571,349.422,8.91166,-29.206,26.8338,25.718
1980-06-24 05:39:05,1,-6.4,3.625,-12.7333,0.72164,1,1,43016.2,38942.0,1696,0.58389413,6.6094332,249.4882,96.800705,26.0161,343.152,9.47059,-28.0226,26.6486,25.3552
1980-06-24 05:39:45,1,-6.675,3.76667,-12.5333,0.538194,1,1,42910.0,39896.8,1696,0.58389413,6.6094332,249.48039,96.800705,25.2882,342.737,6.70287,-27.5588,26.6156,25.6641
1980-06-24 05:40:26,1,-7.11667,4.4,-12.2667,0.523078,1,1,40241.1,41521.7,1696,0.58390254,6.6093626,249.4733,96.801422,26.2677,341.003,9.93515,-27.51,25.7747,26.1816
1980-06-24 05:41:06,1,-7.66154,4.76154,-12.2692,0.581062,1,1,37829.7,39146.4,1696,0.583911,6.609292,249.47011,96.802139,25.3155,341.452,10.6175,-26.619,24.9905,25.4216
1980-06-24 05:41:47,1,-7.38182,4.75455,-12.1182,0.576825,1,1,40602.0,37978.8,1696,0.583911,6.609292,249.4623,96.802139,26.0732,339.593,12.4108,-25.0805,25.89,25.0396
1980-06-24 05:42:27,1,-8.28333,4.56667,-11.7333,0.40104,1,1,42475.1,41006.1,1696,0.58391941,6.6092224,249.45911,96.802856,26.8599,337.942,13.0984,-23.6389,26.4804,26.0185
1980-06-24 05:43:08,1,-8.19167,4.53333,-11.7333,0.645659,1,1,40052.0,41214.4,1696,0.58392787,6.6091518,249.45201,96.803574,27.4988,338.696,11.6142,-25.3327,25.714,26.0845
1980-06-24 05:43:48,1,-10.675,4.75,-9.61667,1.21069,1,1,45722.0,41384.4,1696,0.58392787,6.6091518,249.4481,96.803574,29.9206,328.959,8.64272,-15.5841,27.4739,26.1382
1980-06-24 05:44:29,1,-5.55833,5.44167,-12.3167,1.00727,1,1,44349.8,40463.7,1696,0.58393627,6.6090813,249.44101,96.804291,27.1689,344.991,15.2814,-27.1949,27.0585,25.8459
1980-06-24 05:45:09,1,-5.31667,5.3,-12.6833,0.664162,1,1,43458.2,42692.8,1696,0.58394474,6.6090107,249.43391,96.805008,26.0512,344.022,12.4231,-26.5879,26.7851,26.5482
1980-06-24 05:45:50,1,-4.15833,6.00833,-12.6667,0.486912,1,1,51128.9,39949.2,1696,0.58394474,6.6090107,249.43001,96.805008,28.0615,349.33,14.9101,-24.9938,29.053,25.681
1980-06-24 05:46:30,1,-5.22308,5.81538,-12.5846,0.384,1,1,47186.1,44161.0,1696,0.58395314,6.6089401,249.4229,96.80571,27.6455,344.351,14.0015,-25.839,27.9103,27.0008
1980-06-24 05:47:11,1,-5.11818,6.12727,-12.3909,0.765582,1,1,46311.4,39521.4,1696,0.58396161,6.6088696,249.41971,96.806427,27.2225,343.757,15.4543,-25.028,27.6504,25.5431
1980-06-24 05:47:51,1,-6.05455,6.50909,-11.8909,0.477251,1,1,48986.1,45086.8,1696,0.58396161,6.6088696,249.4119,96.806427,28.7002,341.676,17.1286,-22.6212,28.4377,27.2824
1980-06-24 05:48:32,1,-6.3,6.88182,-11.6273,1.11674,1,1,48606.9,42255.9,1696,0.58397001,6.6087999,249.4048,96.807144,28.2047,343.803,19.2611,-22.5639,28.3274,26.412
1980-06-24 05:49:12,1,-8.44167,6.15833,-10.425,1.64876,1,1,40337.2,35237.0,1696,0.58397847,6.6087294,249.40161,96.807861,21.0513,335.069,20.6843,-18.1947,25.8054,24.1189
1980-06-24 05:49:53,1,-11.2364,3.44545,-8.92727,1.02578,1,1,40288.4,41432.4,1696,0.58397847,6.6087294,249.3938,96.807861,25.2423,324.447,7.8446,-16.5026,25.7898,26.1534
1980-06-24 05:50:33,1,-13.1545,0.709091,-5.70909,0.461761,1,1,44268.6,43727.4,1696,0.58398688,6.6086588,249.39061,96.808578,27.744,318.195,1.43216,-2.50554,27.0337,26.868
1980-06-24 05:51:14,1,-13.9636,-1.92727,-1.40909,1.27552,1,1,38617.8,42177.4,1696,0.58399534,6.6085882,249.38351,96.809296,25.5699,321.565,-9.80161,15.0282,25.2494,26.3875
1980-06-24 05:51:54,1,-11.7909,3.91818,-7.86364,1.64236,1,1,46818.0,41452.8,1696,0.58399534,6.6085882,249.3757,96.809296,21.7443,329.824,12.3658,-14.8384,27.8013,26.1598
1980-06-24 05:52:35,1,-13.5545,1.38182,-5.56364,0.357909,1,1,44138.0,47087.3,1696,0.58400375,6.6085176,249.37251,96.810013,27.248,320.027,3.38337,-1.36542,26.9938,27.8811
1980-06-24 05:53:15,1,-13.9091,0.672727,-4.94545,0.415406,1,1,43557.5,45454.1,1696,0.58401221,6.6084471,249.36542,96.81073,27.2128,321.25,2.25529,-0.424667,26.8157,27.3933
1980-06-24 05:53:56,1,-14.3182,0.5,-4.47273,0.279314,1,1,38505.5,41195.3,1696,0.58401221,6.6084471,249.36151,96.81073,26.2463,323.51,3.20429,1.5089,25.2127,26.0785
1980-06-24 05:54:36,1,-14.1727,0.763636,-4.8,0.172488,1,1,34654.9,42476.6,1696,0.58402061,6.6083775,249.35442,96.811447,26.104,323.415,3.57914,-0.282462,23.9188,26.4809
1980-06-24 05:55:17,1,-14.2909,0.327273,-4.07273,0.545455,1,1,35069.5,40053.9,1696,0.58402908,6.6083069,249.35123,96.812164,24.7822,321.909,2.71217,2.31117,24.0615,25.7146
1980-06-24 05:55:57,1,-14.5,0.1,-3.96364,0.919756,1,1,37263.5,41661.9,1696,0.58402908,6.6083069,249.34341,96.812164,25.9531,321.073,-4.4805,10.0608,24.8027,26.2257
1980-06-24 05:56:38,1,-14.2182,1.31818,-4.76364,0.95908,1,1,31036.3,43386.7,1696,0.58403754,6.6082363,249.33632,96.812881,24.9062,321.37,5.20664,1.42928,22.6357,26.7631
1980-06-24 05:57:18,1,-13.925,2.40833,-5.9,0.525331,1,1,37017.5,41164.0,1696,0.58404595,6.6081657,249.33313,96.813599,24.3471,324.475,9.10401,-6.77581,24.7207,26.0685
1980-06-24 05:57:59,1,-14.3667,1.41667,-4.46667,0.590903,1,1,35430.1,40174.6,1696,0.58404595,6.6081657,249.32532,96.813599,24.6301,322.637,4.60783,-0.781387,24.1849,25.7534
1980-06-24 05:58:39,1,-14.4909,2.65455,-3.34545,0.796791,1,1,30636.9,40961.3,1696,0.58405441,6.6080952,249.32213,96.814316,23.5054,320.53,11.2808,5.79181,22.4895,26.0043
1980-06-24 05:59:20,1,-14.17,3.06,-5.27,1.09572,1,1,31236.5,40165.7,1696,0.58406281,6.6080246,249.31503,96.815033,23.9509,322.864,9.15807,0.359298,22.7085,25.7505
1980-06-24 06:00:00,1,-13.2636,4.53636,-6.79091,0.696746,1,1,31222.0,39987.5,1696,0.58407128,6.607955,249.30794,96.81575,23.6584,325.675,15.6834,-5.94534,22.7033,25.6933
1980-06-24 06:00:41,1,-13.7909,3.5,-5.62727,0.96063,1,1,31084.9,39515.3,1696,0.58407128,6.607955,249.30403,96.81575,25.4683,322.681,11.1637,0.313989,22.6534,25.5412
1980-06-24 06:01:21,1,-14.5727,1.51818,-3.9,1.39734,1,1,33617.8,39299.1,1696,0.58407968,6.6078844,249.29692,96.816452,25.2134,320.818,1.05328,5.96497,23.5582,25.4712
1980-06-24 06:02:42,1,-14.85,0.0416667,-0.658333,0.806656,1,1,32484.4,40335.7,1696,0.58408809,6.6078138,249.28592,96.817169,24.0366,320.313,-3.55581,14.4013,23.1577,25.8049
1980-06-24 06:03:23,1,-14.34,3.01,-2.86,1.38409,1,1,34073.6,44832.8,1696,0.58409655,6.6077433,249.27882,96.817886,27.0095,323.242,6.59505,13.6574,23.7174,27.2054
1980-06-24 06:04:03,1,-14.5545,0.618182,0.581818,1.13458,1,1,35141.0,40137.2,1696,0.58410496,6.6076727,249.27563,96.818604,25.3548,321.663,4.42055,21.6031,24.086,25.7413
1980-06-24 06:04:44,1,-14.42,0.15,2.64,0.506458,1,1,35870.0,39970.5,1696,0.58410496,6.6076727,249.26782,96.818604,24.3598,323.865,-2.25724,29.4811,24.3346,25.6878
1980-06-24 06:05:24,1,-14.7091,0.636364,1.78182,0.657192,1,1,32975.8,38559.0,1696,0.58411342,6.6076021,249.26462,96.819305,24.6388,322.347,3.21802,24.6701,23.3322,25.2302
1980-06-24 06:06:05,1,-14.2273,0.318182,3.09091,1.07818,1,1,38594.5,40651.8,1696,0.58412182,6.6075315,249.25752,96.820023,26.2877,323.236,-3.36977,31.7858,25.2418,25.9059
1980-06-24 06:06:45,1,-14.7364,0.463636,1.12727,1.06056,1,1,37103.8,39184.0,1696,0.58412182,6.6075315,249.25362,96.820023,25.5775,323.271,-0.439835,24.8236,24.7496,25.4339
1980-06-24 06:07:26,1,-14.8818,-1.02727,0.536364,0.418182,1,1,34222.4,39730.8,1696,0.58413023,6.607461,249.24652,96.82074,23.949,321.386,-4.24408,24.0832,23.7691,25.6107
1980-06-24 06:08:06,1,-14.8455,-0.663636,-0.0909091,1.04455,1,1,36255.6,39443.0,1696,0.58413869,6.6073904,249.23943,96.821457,25.6677,322.899,-2.15267,17.0876,24.465,25.5178